Powrót do katalogu

COSMOS 2251 DEB

AktywnyLEO
NORAD 40799·DEBRIS·🇷🇺 Russia

Wystrzelony Jun 16, 1993 z Plesetsk Cosmodrome

Loading…

Następne Przeloty (najbliższe 24 godziny)

TLE

ŚwieżeSource: Space-Track

Epoka: Sep 14, 2026, 08:15 UTC

1 40799U 93036BWC 26257.34438127  .00003681  00000-0  26827-3 0  9990
2 40799  73.9225 255.9134 0110836  72.5871 288.7397 14.99285235541043

Śledź COSMOS 2251 DEB w czasie rzeczywistym z AllMySat

Download on the App Store